User: anonymous   Login
Location: Caltech
(34.1382°N, 118.1253°W)
Time: 04:27:27
(UTC-07:00)
Language:

Cosmos 44 Rocket - Orbit

View from above orbital plane
View from above orbital plane
View from above satellite
View from above satellite

Ground track
Ground track

The orbit data is extracted from the following two-line orbital elements,

1   877U 64053B   17117.95117247 -.00000061 +00000-0 +12213-4 0  9994
2   877 065.0780 079.1262 0054563 142.1625 218.3330 14.59290146794192
Epoch (UTC): 27 April 2017 22:49:41
Eccentricity: 0.0054563
inclination: 65.0780°
perigee height: 657 km
apogee height: 734 km
right ascension of ascending node: 79.1262°
argument of perigee: 142.1625°
revolutions per day: 14.59290146
mean anomaly at epoch: 218.3330°
orbit number at epoch: 79419

The dashed part of the orbit path shows where the satellite is in the earth's shadow,  

DLR